PAA1897 SAEZ-MPTO

Flight info

Callsign PAA1897
Flight time 6h 48m
Altitude 34000
Route ATOVO1E ATOVO DCT ERE UT672 JUJ UM776 UBSAS/N0484F350 UP408 BOGUB/N0485F340 UW16 IMBAM UM776 ASOLA/N0482F360 UM776 IQT/N0483F350 UL300 ROLUS/N0481F360 UN420 IRATA SIRIL3C
Aircraft MD11/H-SDE1E2E3FGHIJ2J3J4J5M1RWXY/LB1D1

Departure

Time 2026-05-07 21:07
Airport Ezeiza International Airport - Ministro Pistarini (SAEZ)

Arrival

Time 2026-05-08 03:55
Airport Tocumen International Airport (MPTO)
Time Latitude Longitude Altitude Speed Heading
2026-05-07 19:58 -34.81512 -58.53850 82 ft 0 kts 349°
2026-05-07 20:52 -34.81521 -58.53848 86 ft 4 kts 350°
2026-05-07 20:52 -34.81548 -58.53842 82 ft 4 kts 352°
2026-05-07 20:53 -34.81575 -58.53838 82 ft 4 kts 354°
2026-05-07 20:53 -34.81602 -58.53835 86 ft 4 kts 356°
2026-05-07 20:53 -34.81629 -58.53833 85 ft 4 kts 359°
2026-05-07 20:53 -34.81656 -58.53834 82 ft 4 kts
2026-05-07 20:54 -34.81683 -58.53838 82 ft 4 kts 19°
2026-05-07 20:54 -34.81699 -58.53848 82 ft 0 kts 46°
2026-05-07 20:57 -34.81698 -58.53847 82 ft 0 kts 50°
2026-05-07 20:57 -34.81696 -58.53842 82 ft 1 kts 54°
2026-05-07 20:57 -34.81695 -58.53839 82 ft 0 kts 64°
2026-05-07 20:58 -34.81695 -58.53833 82 ft 2 kts 77°
2026-05-07 20:58 -34.81696 -58.53819 82 ft 2 kts 94°
2026-05-07 20:58 -34.81706 -58.53773 87 ft 8 kts 112°
2026-05-07 20:58 -34.81740 -58.53724 82 ft 5 kts 144°
2026-05-07 20:59 -34.81770 -58.53705 86 ft 6 kts 155°
2026-05-07 20:59 -34.81826 -58.53674 87 ft 10 kts 155°
2026-05-07 20:59 -34.81882 -58.53637 87 ft 9 kts 146°
2026-05-07 20:59 -34.81917 -58.53568 83 ft 10 kts 104°
2026-05-07 21:00 -34.81935 -58.53478 87 ft 11 kts 103°
2026-05-07 21:00 -34.81953 -58.53388 83 ft 11 kts 103°
2026-05-07 21:00 -34.81974 -58.53281 85 ft 15 kts 103°
2026-05-07 21:00 -34.82001 -58.53148 88 ft 17 kts 103°
2026-05-07 21:01 -34.82025 -58.53024 88 ft 13 kts 104°
2026-05-07 21:01 -34.82046 -58.52924 92 ft 13 kts 104°
2026-05-07 21:01 -34.82072 -58.52793 84 ft 19 kts 103°
2026-05-07 21:01 -34.82107 -58.52618 86 ft 23 kts 103°
2026-05-07 21:02 -34.82146 -58.52418 84 ft 23 kts 104°
2026-05-07 21:02 -34.82183 -58.52235 87 ft 21 kts 103°
2026-05-07 21:02 -34.82216 -58.52070 84 ft 19 kts 104°
2026-05-07 21:02 -34.82245 -58.51925 83 ft 17 kts 103°
2026-05-07 21:03 -34.82264 -58.51833 87 ft 6 kts 103°
2026-05-07 21:03 -34.82283 -58.51790 87 ft 2 kts 145°
2026-05-07 21:03 -34.82296 -58.51786 83 ft 2 kts 172°
2026-05-07 21:03 -34.82328 -58.51788 88 ft 6 kts 190°
2026-05-07 21:04 -34.82366 -58.51799 84 ft 4 kts 193°
2026-05-07 21:04 -34.82386 -58.51804 88 ft 2 kts 193°
2026-05-07 21:04 -34.82406 -58.51810 85 ft 4 kts 193°
2026-05-07 21:04 -34.82436 -58.51818 90 ft 4 kts 193°
2026-05-07 21:05 -34.82462 -58.51826 88 ft 3 kts 196°
2026-05-07 21:05 -34.82479 -58.51834 89 ft 4 kts 202°
2026-05-07 21:05 -34.82497 -58.51849 90 ft 5 kts 217°
2026-05-07 21:05 -34.82519 -58.51900 92 ft 8 kts 260°
2026-05-07 21:06 -34.82512 -58.51960 88 ft 4 kts 283°
2026-05-07 21:06 -34.82505 -58.51996 88 ft 7 kts 283°
2026-05-07 21:06 -34.82451 -58.52301 87 ft 77 kts 282°
2026-05-07 21:06 -34.82285 -58.53221 89 ft 139 kts 282°
2026-05-07 21:07 -34.82054 -58.54523 130 ft 168 kts 282°
2026-05-07 21:07 -34.81791 -58.55898 533 ft 167 kts 283°
2026-05-07 21:07 -34.81501 -58.57291 956 ft 173 kts 284°
2026-05-07 21:07 -34.81196 -58.58716 1462 ft 174 kts 283°
2026-05-07 21:08 -34.80981 -58.60195 1959 ft 186 kts 272°
2026-05-07 21:08 -34.81247 -58.61700 2902 ft 169 kts 240°
2026-05-07 21:08 -34.81961 -58.62802 3865 ft 176 kts 231°
2026-05-07 21:08 -34.82882 -58.63998 4009 ft 209 kts 229°
2026-05-07 21:09 -34.83936 -58.65338 4461 ft 221 kts 228°
2026-05-07 21:09 -34.85003 -58.66703 5126 ft 224 kts 228°
2026-05-07 21:09 -34.86096 -58.68094 5778 ft 229 kts 226°
2026-05-07 21:09 -34.87354 -58.69341 6361 ft 247 kts 212°
2026-05-07 21:10 -34.89007 -58.69955 6954 ft 261 kts 186°
2026-05-07 21:10 -34.90859 -58.69637 7624 ft 282 kts 160°
2026-05-07 21:10 -34.92482 -58.68203 8461 ft 289 kts 141°
2026-05-07 21:10 -34.93922 -58.66451 9159 ft 296 kts 137°
2026-05-07 21:11 -34.95355 -58.64615 9852 ft 306 kts 136°
2026-05-07 21:11 -34.96880 -58.62664 9973 ft 329 kts 135°
2026-05-07 21:11 -34.99579 -58.57692 10464 ft 376 kts 106°
2026-05-07 21:12 -34.99873 -58.54554 11227 ft 382 kts 86°
2026-05-07 21:12 -34.99287 -58.51372 11979 ft 384 kts 65°
2026-05-07 21:12 -34.97892 -58.48608 12728 ft 383 kts 45°
2026-05-07 21:12 -34.95858 -58.46557 13466 ft 379 kts 26°
2026-05-07 21:13 -34.93420 -58.45431 14204 ft 374 kts
2026-05-07 21:13 -34.90891 -58.45327 14946 ft 366 kts 348°
2026-05-07 21:13 -34.88461 -58.46255 15686 ft 361 kts 330°
2026-05-07 21:13 -34.86384 -58.47963 16371 ft 360 kts 321°
2026-05-07 21:14 -34.84467 -58.49922 17034 ft 361 kts 319°
2026-05-07 21:14 -34.82586 -58.51942 17682 ft 361 kts 319°
2026-05-07 21:14 -34.80709 -58.53974 18338 ft 361 kts 319°
2026-05-07 21:14 -34.78863 -58.55987 18909 ft 362 kts 319°
2026-05-07 21:15 -34.76958 -58.58063 19366 ft 364 kts 319°
2026-05-07 21:15 -34.75067 -58.60119 19883 ft 366 kts 319°
2026-05-07 21:15 -34.73167 -58.62180 20449 ft 367 kts 320°
2026-05-07 21:15 -34.71229 -58.64136 20938 ft 368 kts 325°
2026-05-07 21:16 -34.69070 -58.65902 21493 ft 370 kts 328°
2026-05-07 21:16 -34.66887 -58.67557 22003 ft 372 kts 329°
2026-05-07 21:16 -34.64688 -58.69211 22566 ft 373 kts 329°
2026-05-07 21:16 -34.62486 -58.70894 23130 ft 374 kts 328°
2026-05-07 21:17 -34.60283 -58.72604 23666 ft 376 kts 328°
2026-05-07 21:17 -34.58082 -58.74332 24200 ft 378 kts 328°
2026-05-07 21:17 -34.55874 -58.76076 24739 ft 380 kts 328°
2026-05-07 21:17 -34.53648 -58.77838 25261 ft 382 kts 328°
2026-05-07 21:18 -34.51480 -58.79559 25758 ft 384 kts 328°
2026-05-07 21:18 -34.49211 -58.81361 26296 ft 386 kts 328°
2026-05-07 21:18 -34.46920 -58.83179 26771 ft 388 kts 329°
2026-05-07 21:18 -34.44682 -58.84953 27257 ft 390 kts 329°
2026-05-07 21:19 -34.42403 -58.86758 27703 ft 393 kts 329°
2026-05-07 21:19 -34.40083 -58.88595 28161 ft 395 kts 329°
2026-05-07 21:19 -34.37806 -58.90396 28591 ft 397 kts 329°
2026-05-07 21:19 -34.36243 -58.91633 28867 ft 399 kts 329°
2026-05-07 21:20 -34.33918 -58.93471 29297 ft 400 kts 329°
2026-05-07 21:20 -34.31576 -58.95321 29662 ft 403 kts 329°
2026-05-07 21:20 -34.28472 -58.97772 30283 ft 402 kts 330°
2026-05-07 21:20 -34.26124 -58.99583 30764 ft 400 kts 331°
2026-05-07 21:21 -34.24519 -59.00756 31096 ft 398 kts 332°
2026-05-07 21:21 -34.22136 -59.02451 31530 ft 397 kts 333°
2026-05-07 21:21 -34.19755 -59.04125 31929 ft 396 kts 333°
2026-05-07 21:21 -34.17370 -59.05794 32338 ft 395 kts 333°
2026-05-07 21:22 -34.14999 -59.07455 32704 ft 394 kts 333°
2026-05-07 21:22 -34.12638 -59.09114 33086 ft 392 kts 333°
2026-05-07 21:22 -34.10284 -59.10770 33462 ft 391 kts 333°
2026-05-07 21:22 -34.07929 -59.12427 33629 ft 392 kts 333°
2026-05-07 21:23 -34.03208 -59.15746 33682 ft 393 kts 333°
2026-05-07 21:23 -33.98490 -59.19060 33675 ft 392 kts 333°
2026-05-07 21:24 -33.93739 -59.22390 33682 ft 397 kts 333°
2026-05-07 21:24 -33.88970 -59.25732 33701 ft 397 kts 333°
2026-05-07 21:25 -33.84202 -59.29067 33700 ft 397 kts 333°
2026-05-07 21:25 -33.79427 -59.32404 33704 ft 396 kts 333°
2026-05-07 21:26 -33.74668 -59.35727 33708 ft 396 kts 333°
2026-05-07 21:26 -33.69904 -59.39047 33710 ft 396 kts 333°
2026-05-07 21:27 -33.65138 -59.42364 33710 ft 396 kts 333°
2026-05-07 21:27 -33.60372 -59.45677 33711 ft 396 kts 333°
2026-05-07 21:28 -33.55599 -59.48991 33711 ft 396 kts 333°
2026-05-07 21:28 -33.50823 -59.52286 33718 ft 396 kts 334°
2026-05-07 21:29 -33.46048 -59.55580 33721 ft 396 kts 333°
2026-05-07 21:29 -33.41277 -59.58876 33721 ft 396 kts 333°
2026-05-07 21:30 -33.36506 -59.62170 33721 ft 396 kts 333°
2026-05-07 21:30 -33.31726 -59.65466 33730 ft 396 kts 333°
2026-05-07 21:31 -33.26945 -59.68759 33730 ft 397 kts 333°
2026-05-07 21:31 -33.22158 -59.72055 33728 ft 398 kts 333°
2026-05-07 21:32 -33.17364 -59.75349 33736 ft 398 kts 333°
2026-05-07 21:32 -33.12559 -59.78645 33740 ft 399 kts 333°
2026-05-07 21:33 -33.07743 -59.81946 33741 ft 399 kts 333°
2026-05-07 21:33 -33.02923 -59.85246 33746 ft 400 kts 333°
2026-05-07 21:34 -32.98090 -59.88550 33752 ft 401 kts 333°
2026-05-07 21:34 -32.93258 -59.91850 33770 ft 401 kts 333°
2026-05-07 21:35 -32.88407 -59.95157 33773 ft 402 kts 333°
2026-05-07 21:35 -32.83554 -59.98461 33773 ft 402 kts 333°
2026-05-07 21:36 -32.78691 -60.01755 33780 ft 403 kts 334°
2026-05-07 21:36 -32.73809 -60.05057 33760 ft 404 kts 334°
2026-05-07 21:37 -32.68924 -60.08366 33780 ft 405 kts 334°
2026-05-07 21:37 -32.64038 -60.11677 33781 ft 405 kts 334°
2026-05-07 21:38 -32.59176 -60.14968 33775 ft 405 kts 334°
2026-05-07 21:38 -32.54247 -60.18300 33764 ft 406 kts 334°
2026-05-07 21:39 -32.49370 -60.21592 33768 ft 406 kts 334°
2026-05-07 21:39 -32.44465 -60.24897 33780 ft 406 kts 334°
2026-05-07 21:40 -32.39562 -60.28198 33786 ft 406 kts 334°
2026-05-07 21:40 -32.34643 -60.31505 33787 ft 406 kts 334°
2026-05-07 21:41 -32.29736 -60.34800 33786 ft 406 kts 334°
2026-05-07 21:41 -32.24822 -60.38097 33790 ft 406 kts 334°
2026-05-07 21:42 -32.19902 -60.41392 33795 ft 407 kts 334°
2026-05-07 21:42 -32.14974 -60.44688 33794 ft 407 kts 334°
2026-05-07 21:43 -32.10048 -60.47979 33795 ft 407 kts 334°
2026-05-07 21:43 -32.05121 -60.51252 33796 ft 407 kts 334°
2026-05-07 21:44 -32.00188 -60.54528 33795 ft 407 kts 334°
2026-05-07 21:44 -31.95263 -60.57803 33800 ft 406 kts 333°
2026-05-07 21:45 -31.90352 -60.61067 33803 ft 406 kts 333°
2026-05-07 21:45 -31.85440 -60.64329 33805 ft 405 kts 333°
2026-05-07 21:46 -31.80531 -60.67584 33804 ft 405 kts 333°
2026-05-07 21:46 -31.75615 -60.70840 33804 ft 405 kts 333°
2026-05-07 21:47 -31.70707 -60.74087 33804 ft 405 kts 333°
2026-05-07 21:47 -31.65813 -60.77322 33804 ft 404 kts 333°
2026-05-07 21:48 -31.60923 -60.80548 33804 ft 403 kts 333°
2026-05-07 21:48 -31.56029 -60.83772 33804 ft 403 kts 333°
2026-05-07 21:49 -31.51142 -60.86990 33804 ft 403 kts 333°
2026-05-07 21:49 -31.46254 -60.90204 33803 ft 402 kts 333°
2026-05-07 21:50 -31.41370 -60.93412 33806 ft 402 kts 333°
2026-05-07 21:50 -31.36492 -60.96606 33805 ft 402 kts 333°
2026-05-07 21:51 -31.31605 -60.99793 33805 ft 402 kts 333°
2026-05-07 21:51 -31.26722 -61.02980 33804 ft 402 kts 332°
2026-05-07 21:52 -31.21844 -61.06167 33805 ft 401 kts 332°
2026-05-07 21:52 -31.16968 -61.09350 33809 ft 401 kts 332°
2026-05-07 21:53 -31.12093 -61.12528 33812 ft 401 kts 332°
2026-05-07 21:53 -31.07220 -61.15699 33813 ft 401 kts 332°
2026-05-07 21:54 -31.02356 -61.18864 33813 ft 401 kts 332°
2026-05-07 21:54 -30.97488 -61.22028 33813 ft 400 kts 332°
2026-05-07 21:55 -30.92622 -61.25185 33815 ft 400 kts 331°
2026-05-07 21:55 -30.87757 -61.28337 33822 ft 400 kts 331°
2026-05-07 21:56 -30.82901 -61.31480 33824 ft 400 kts 330°
2026-05-07 21:56 -30.78047 -61.34617 33822 ft 398 kts 331°
2026-05-07 21:57 -30.73186 -61.37751 33822 ft 401 kts 331°
2026-05-07 21:57 -30.68331 -61.40882 33828 ft 397 kts 330°
2026-05-07 21:58 -30.63476 -61.44006 33828 ft 399 kts 330°
2026-05-07 21:58 -30.58619 -61.47112 33827 ft 397 kts 330°
2026-05-07 21:59 -30.53783 -61.50214 33835 ft 396 kts 329°
2026-05-07 21:59 -30.48959 -61.53331 33832 ft 398 kts 329°
2026-05-07 22:00 -30.44096 -61.56434 33840 ft 398 kts 329°
2026-05-07 22:00 -30.39251 -61.59551 33840 ft 398 kts 329°
2026-05-07 22:01 -30.34420 -61.62650 33839 ft 397 kts 329°
2026-05-07 22:01 -30.29589 -61.65740 33843 ft 398 kts 328°
2026-05-07 22:02 -30.25532 -61.68330 33842 ft 396 kts 328°
2026-05-07 22:02 -30.20693 -61.71407 33850 ft 399 kts 328°
2026-05-07 22:03 -30.15862 -61.74490 33853 ft 395 kts 328°
2026-05-07 22:03 -30.11033 -61.77558 33853 ft 397 kts 328°
2026-05-07 22:04 -30.06199 -61.80616 33848 ft 395 kts 329°
2026-05-07 22:04 -30.01408 -61.83668 33848 ft 396 kts 328°
2026-05-07 22:05 -29.96536 -61.86757 33852 ft 396 kts 327°
2026-05-07 22:05 -29.91699 -61.89829 33860 ft 396 kts 327°
2026-05-07 22:06 -29.86892 -61.92845 33856 ft 395 kts 328°
2026-05-07 22:06 -29.82039 -61.95844 33868 ft 396 kts 328°
2026-05-07 22:07 -29.77193 -61.98838 33867 ft 396 kts 328°
2026-05-07 22:07 -29.72293 -62.01855 33867 ft 397 kts 328°
2026-05-07 22:08 -29.67448 -62.04832 33871 ft 398 kts 328°
2026-05-07 22:08 -29.62525 -62.07861 33868 ft 399 kts 328°
2026-05-07 22:09 -29.57622 -62.10876 33876 ft 402 kts 328°
2026-05-07 22:09 -29.52731 -62.13893 33878 ft 401 kts 328°
2026-05-07 22:10 -29.47782 -62.16911 33875 ft 402 kts 328°
2026-05-07 22:10 -29.42811 -62.19964 33876 ft 403 kts 328°
2026-05-07 22:11 -29.37900 -62.22959 33878 ft 403 kts 328°
2026-05-07 22:11 -29.32899 -62.26011 33885 ft 406 kts 328°
2026-05-07 22:12 -29.27912 -62.29043 33885 ft 407 kts 328°
2026-05-07 22:12 -29.22939 -62.32068 33884 ft 408 kts 327°
2026-05-07 22:13 -29.17896 -62.35161 33901 ft 409 kts 327°
2026-05-07 22:13 -29.12872 -62.38227 33894 ft 411 kts 328°
2026-05-07 22:14 -29.07814 -62.41284 33895 ft 411 kts 327°
2026-05-07 22:14 -29.02766 -62.44349 33894 ft 411 kts 327°
2026-05-07 22:15 -28.97670 -62.47414 33899 ft 416 kts 328°
2026-05-07 22:15 -28.92572 -62.50495 33908 ft 414 kts 327°
2026-05-07 22:16 -28.87499 -62.53559 33904 ft 413 kts 327°
2026-05-07 22:16 -28.82411 -62.56638 33920 ft 414 kts 327°
2026-05-07 22:17 -28.77311 -62.59704 33925 ft 415 kts 327°
2026-05-07 22:17 -28.72201 -62.62763 33924 ft 415 kts 327°
2026-05-07 22:18 -28.64535 -62.67346 33924 ft 415 kts 327°
2026-05-07 22:19 -28.59419 -62.70402 33930 ft 415 kts 327°
2026-05-07 22:19 -28.54301 -62.73458 33935 ft 416 kts 327°
2026-05-07 22:20 -28.49201 -62.76498 33934 ft 417 kts 327°
2026-05-07 22:20 -28.44057 -62.79558 33933 ft 418 kts 327°
2026-05-07 22:21 -28.38908 -62.82618 33934 ft 418 kts 327°
2026-05-07 22:21 -28.33748 -62.85685 33935 ft 419 kts 327°
2026-05-07 22:22 -28.28572 -62.88756 33934 ft 420 kts 327°
2026-05-07 22:22 -28.23392 -62.91827 33936 ft 421 kts 327°
2026-05-07 22:23 -28.18183 -62.94910 33937 ft 423 kts 326°
2026-05-07 22:23 -28.12959 -62.97998 33937 ft 424 kts 326°
2026-05-07 22:24 -28.07707 -63.01095 33954 ft 426 kts 326°
2026-05-07 22:24 -28.02440 -63.04190 33950 ft 428 kts 326°
2026-05-07 22:25 -27.97146 -63.07304 33951 ft 430 kts 326°
2026-05-07 22:25 -27.91835 -63.10431 33938 ft 431 kts 326°
2026-05-07 22:26 -27.86497 -63.13570 33948 ft 433 kts 326°
2026-05-07 22:26 -27.81144 -63.16712 33958 ft 434 kts 325°
2026-05-07 22:27 -27.75781 -63.19858 33951 ft 435 kts 325°
2026-05-07 22:27 -27.70383 -63.23016 33954 ft 438 kts 326°
2026-05-07 22:28 -27.64973 -63.26182 33960 ft 437 kts 325°
2026-05-07 22:28 -27.59552 -63.29361 33957 ft 440 kts 325°
2026-05-07 22:29 -27.54104 -63.32542 33960 ft 441 kts 325°
2026-05-07 22:29 -27.48660 -63.35733 33957 ft 441 kts 326°
2026-05-07 22:30 -27.43197 -63.38905 33967 ft 442 kts 326°
2026-05-07 22:30 -27.37739 -63.42073 33964 ft 442 kts 326°
2026-05-07 22:31 -27.32279 -63.45234 33968 ft 441 kts 326°
2026-05-07 22:31 -27.26808 -63.48391 33959 ft 441 kts 326°
2026-05-07 22:32 -27.21342 -63.51571 33962 ft 444 kts 326°
2026-05-07 22:32 -27.15866 -63.54752 33963 ft 442 kts 326°
2026-05-07 22:33 -27.10399 -63.57924 33958 ft 443 kts 326°
2026-05-07 22:33 -27.04911 -63.61107 33966 ft 444 kts 326°
2026-05-07 22:34 -26.99417 -63.64251 33972 ft 445 kts 326°
2026-05-07 22:34 -26.93912 -63.67418 33968 ft 446 kts 326°
2026-05-07 22:35 -26.88382 -63.70589 33968 ft 447 kts 326°
2026-05-07 22:35 -26.82857 -63.73773 33971 ft 447 kts 327°
2026-05-07 22:36 -26.77305 -63.76927 33974 ft 448 kts 326°
2026-05-07 22:36 -26.71760 -63.80107 33975 ft 449 kts 326°
2026-05-07 22:37 -26.66185 -63.83264 33977 ft 450 kts 327°
2026-05-07 22:37 -26.60595 -63.86426 33977 ft 451 kts 327°
2026-05-07 22:38 -26.54993 -63.89600 33990 ft 452 kts 327°
2026-05-07 22:38 -26.49372 -63.92786 33999 ft 453 kts 327°
2026-05-07 22:39 -26.43748 -63.95969 34000 ft 454 kts 327°
2026-05-07 22:39 -26.38099 -63.99162 33998 ft 455 kts 327°
2026-05-07 22:40 -26.32451 -64.02352 33998 ft 457 kts 327°
2026-05-07 22:40 -26.26754 -64.05567 33998 ft 459 kts 327°
2026-05-07 22:41 -26.21057 -64.08771 34000 ft 459 kts 327°
2026-05-07 22:41 -26.15350 -64.11978 33999 ft 459 kts 327°
2026-05-07 22:42 -26.09649 -64.15186 34005 ft 459 kts 327°
2026-05-07 22:42 -26.03960 -64.18396 34008 ft 458 kts 327°
2026-05-07 22:43 -25.99228 -64.21066 34007 ft 459 kts 327°
2026-05-07 22:43 -25.93541 -64.24273 34013 ft 458 kts 327°
2026-05-07 22:44 -25.87855 -64.27475 34017 ft 458 kts 327°
2026-05-07 22:44 -25.82167 -64.30674 34015 ft 458 kts 327°
2026-05-07 22:45 -25.76477 -64.33870 34006 ft 458 kts 327°
2026-05-07 22:45 -25.70793 -64.37059 34014 ft 458 kts 327°
2026-05-07 22:46 -25.65106 -64.40246 34013 ft 458 kts 327°
2026-05-07 22:46 -25.59412 -64.43432 34016 ft 457 kts 327°
2026-05-07 22:47 -25.53726 -64.46607 34030 ft 458 kts 327°
2026-05-07 22:47 -25.48041 -64.49781 34034 ft 455 kts 327°
2026-05-07 22:48 -25.42362 -64.52964 34023 ft 458 kts 327°
2026-05-07 22:48 -25.36686 -64.56130 34039 ft 460 kts 327°
2026-05-07 22:49 -25.30997 -64.59274 34033 ft 456 kts 326°
2026-05-07 22:49 -25.25313 -64.62436 34043 ft 458 kts 327°
2026-05-07 22:50 -25.19642 -64.65605 34047 ft 456 kts 327°
2026-05-07 22:50 -25.13961 -64.68776 34051 ft 457 kts 327°
2026-05-07 22:51 -25.08265 -64.71912 34051 ft 457 kts 327°
2026-05-07 22:51 -25.02578 -64.75052 34058 ft 458 kts 327°
2026-05-07 22:52 -24.96907 -64.78211 34024 ft 457 kts 326°
2026-05-07 22:52 -24.91226 -64.81347 34014 ft 454 kts 326°
2026-05-07 22:53 -24.85558 -64.84471 34011 ft 456 kts 327°
2026-05-07 22:53 -24.79895 -64.87585 34034 ft 455 kts 327°
2026-05-07 22:54 -24.74234 -64.90717 34034 ft 456 kts 327°
2026-05-07 22:54 -24.68573 -64.93827 34040 ft 454 kts 327°
2026-05-07 22:55 -24.62928 -64.96929 34033 ft 453 kts 327°
2026-05-07 22:55 -24.57257 -65.00044 34033 ft 455 kts 327°
2026-05-07 22:56 -24.51586 -65.03138 34025 ft 454 kts 327°
2026-05-07 22:56 -24.45879 -65.06159 34031 ft 457 kts 329°
2026-05-07 22:57 -24.40041 -65.08859 34016 ft 459 kts 331°
2026-05-07 22:57 -24.34097 -65.11520 34015 ft 459 kts 331°
2026-05-07 22:58 -24.28187 -65.14183 34019 ft 459 kts 331°
2026-05-07 22:58 -24.22292 -65.16853 34025 ft 459 kts 331°
2026-05-07 22:59 -24.16390 -65.19528 34023 ft 459 kts 331°
2026-05-07 22:59 -24.10485 -65.22202 34025 ft 459 kts 331°
2026-05-07 23:00 -24.04580 -65.24872 34027 ft 460 kts 331°
2026-05-07 23:00 -23.98660 -65.27546 34022 ft 460 kts 331°
2026-05-07 23:01 -23.92761 -65.30206 34029 ft 458 kts 331°
2026-05-07 23:01 -23.86872 -65.32860 34031 ft 458 kts 331°
2026-05-07 23:02 -23.80975 -65.35518 34027 ft 458 kts 331°
2026-05-07 23:02 -23.75086 -65.38168 34029 ft 458 kts 331°
2026-05-07 23:03 -23.69197 -65.40813 34046 ft 458 kts 331°
2026-05-07 23:03 -23.63297 -65.43454 34038 ft 458 kts 331°
2026-05-07 23:04 -23.57402 -65.46093 34025 ft 458 kts 331°
2026-05-07 23:04 -23.51514 -65.48723 34021 ft 458 kts 331°
2026-05-07 23:05 -23.45625 -65.51344 34019 ft 457 kts 331°
2026-05-07 23:05 -23.39733 -65.53965 34020 ft 457 kts 331°
2026-05-07 23:06 -23.33853 -65.56578 34013 ft 457 kts 331°
2026-05-07 23:06 -23.27972 -65.59190 34016 ft 457 kts 331°
2026-05-07 23:07 -23.22077 -65.61802 34019 ft 456 kts 331°
2026-05-07 23:07 -23.16206 -65.64405 34021 ft 456 kts 331°
2026-05-07 23:08 -23.10333 -65.67007 34025 ft 456 kts 331°
2026-05-07 23:08 -23.04461 -65.69604 34022 ft 456 kts 331°
2026-05-07 23:09 -22.98597 -65.72194 34025 ft 455 kts 331°
2026-05-07 23:09 -22.92741 -65.74779 34030 ft 454 kts 330°
2026-05-07 23:10 -22.86900 -65.77356 34033 ft 453 kts 330°
2026-05-07 23:10 -22.81057 -65.79930 34046 ft 453 kts 330°
2026-05-07 23:11 -22.75220 -65.82496 34044 ft 453 kts 331°
2026-05-07 23:11 -22.69381 -65.85057 34058 ft 452 kts 330°
2026-05-07 23:12 -22.63564 -65.87612 34064 ft 451 kts 330°
2026-05-07 23:12 -22.57737 -65.90172 34074 ft 451 kts 330°
2026-05-07 23:13 -22.51930 -65.92720 34075 ft 451 kts 330°
2026-05-07 23:13 -22.46105 -65.95272 34102 ft 451 kts 330°
2026-05-07 23:14 -22.40301 -65.97813 34117 ft 450 kts 330°
2026-05-07 23:14 -22.34499 -66.00350 34125 ft 450 kts 330°
2026-05-07 23:15 -22.28683 -66.02892 34257 ft 452 kts 330°
2026-05-07 23:15 -22.25773 -66.04163 34636 ft 450 kts 330°
2026-05-07 23:15 -22.22877 -66.05424 34997 ft 448 kts 330°
2026-05-07 23:15 -22.19988 -66.06684 35109 ft 446 kts 330°
2026-05-07 23:16 -22.17116 -66.07934 35135 ft 445 kts 330°
2026-05-07 23:16 -22.11376 -66.10433 35153 ft 444 kts 330°
2026-05-07 23:17 -22.05648 -66.12929 35156 ft 444 kts 330°
2026-05-07 23:17 -21.99916 -66.15426 35164 ft 444 kts 330°
2026-05-07 23:18 -21.94186 -66.17917 35176 ft 444 kts 330°
2026-05-07 23:18 -21.88454 -66.20406 35186 ft 444 kts 330°
2026-05-07 23:19 -21.82730 -66.22891 35194 ft 444 kts 330°
2026-05-07 23:19 -21.77012 -66.25404 35208 ft 443 kts 330°
2026-05-07 23:20 -21.71325 -66.27937 35220 ft 443 kts 330°
2026-05-07 23:20 -21.65618 -66.30480 35232 ft 443 kts 330°
2026-05-07 23:21 -21.59913 -66.33019 35241 ft 444 kts 330°
2026-05-07 23:21 -21.54204 -66.35556 35257 ft 444 kts 330°
2026-05-07 23:22 -21.48486 -66.38094 35277 ft 445 kts 330°
2026-05-07 23:22 -21.42772 -66.40630 35312 ft 444 kts 330°
2026-05-07 23:23 -21.37051 -66.43165 35340 ft 445 kts 330°
2026-05-07 23:23 -21.31328 -66.45697 35361 ft 445 kts 330°
2026-05-07 23:24 -21.26569 -66.47801 35362 ft 445 kts 330°
2026-05-07 23:24 -21.20840 -66.50335 35377 ft 446 kts 330°
2026-05-07 23:25 -21.15118 -66.52863 35387 ft 445 kts 330°
2026-05-07 23:25 -21.09390 -66.55390 35399 ft 445 kts 330°
2026-05-07 23:26 -21.03662 -66.57914 35408 ft 445 kts 331°
2026-05-07 23:26 -20.97929 -66.60434 35422 ft 445 kts 331°
2026-05-07 23:27 -20.89330 -66.64215 35437 ft 446 kts 331°
2026-05-07 23:27 -20.83592 -66.66737 35447 ft 446 kts 331°
2026-05-07 23:28 -20.77854 -66.69260 35456 ft 447 kts 331°
2026-05-07 23:28 -20.72116 -66.71810 35462 ft 446 kts 330°
2026-05-07 23:29 -20.66390 -66.74365 35467 ft 446 kts 331°
2026-05-07 23:29 -20.60657 -66.76924 35473 ft 447 kts 331°
2026-05-07 23:30 -20.54918 -66.79480 35477 ft 447 kts 331°
2026-05-07 23:30 -20.49186 -66.82033 35476 ft 447 kts 331°
2026-05-07 23:31 -20.43332 -66.84353 35484 ft 450 kts 334°
2026-05-07 23:31 -20.37380 -66.86461 35487 ft 450 kts 335°
2026-05-07 23:32 -20.31431 -66.88555 35480 ft 450 kts 335°
2026-05-07 23:32 -20.25490 -66.90666 35480 ft 450 kts 335°
2026-05-07 23:33 -20.19545 -66.92786 35477 ft 450 kts 335°
2026-05-07 23:33 -20.13603 -66.94905 35476 ft 450 kts 335°
2026-05-07 23:34 -20.07664 -66.97020 35475 ft 450 kts 335°
2026-05-07 23:34 -20.01731 -66.99138 35468 ft 450 kts 335°
2026-05-07 23:35 -19.95795 -67.01261 35466 ft 451 kts 335°
2026-05-07 23:35 -19.89823 -67.03397 35469 ft 453 kts 335°
2026-05-07 23:36 -19.83848 -67.05531 35453 ft 454 kts 335°
2026-05-07 23:36 -19.77852 -67.07671 35449 ft 454 kts 335°
2026-05-07 23:37 -19.71866 -67.09805 35450 ft 454 kts 335°
2026-05-07 23:37 -19.65875 -67.11940 35459 ft 454 kts 335°
2026-05-07 23:38 -19.59880 -67.14072 35449 ft 454 kts 335°
2026-05-07 23:38 -19.53887 -67.16205 35448 ft 454 kts 335°
2026-05-07 23:39 -19.47890 -67.18336 35448 ft 455 kts 335°
2026-05-07 23:39 -19.41888 -67.20468 35448 ft 455 kts 335°
2026-05-07 23:40 -19.35873 -67.22603 35440 ft 455 kts 335°
2026-05-07 23:40 -19.29868 -67.24733 35440 ft 456 kts 335°
2026-05-07 23:41 -19.23844 -67.26864 35441 ft 456 kts 335°
2026-05-07 23:41 -19.17822 -67.28990 35441 ft 456 kts 335°
2026-05-07 23:42 -19.11801 -67.31119 35441 ft 457 kts 336°
2026-05-07 23:42 -19.05775 -67.33251 35440 ft 457 kts 336°
2026-05-07 23:43 -18.99758 -67.35377 35439 ft 457 kts 336°
2026-05-07 23:43 -18.93722 -67.37508 35439 ft 457 kts 336°
2026-05-07 23:44 -18.87686 -67.39635 35440 ft 458 kts 336°
2026-05-07 23:44 -18.81632 -67.41769 35440 ft 458 kts 336°
2026-05-07 23:45 -18.75570 -67.43906 35596 ft 460 kts 336°
2026-05-07 23:45 -18.72538 -67.44973 35917 ft 460 kts 336°
2026-05-07 23:45 -18.69505 -67.46039 36272 ft 458 kts 336°
2026-05-07 23:46 -18.66482 -67.47103 36418 ft 458 kts 336°
2026-05-07 23:46 -18.63462 -67.48165 36439 ft 458 kts 336°
2026-05-07 23:46 -18.57433 -67.50299 36448 ft 457 kts 336°
2026-05-07 23:47 -18.51406 -67.52449 36450 ft 457 kts 336°
2026-05-07 23:47 -18.45384 -67.54601 36449 ft 457 kts 336°
2026-05-07 23:48 -18.39353 -67.56750 36449 ft 457 kts 336°
2026-05-07 23:48 -18.33321 -67.58899 36449 ft 458 kts 336°
2026-05-07 23:49 -18.27286 -67.61046 36449 ft 458 kts 336°
2026-05-07 23:49 -18.21245 -67.63195 36449 ft 458 kts 336°
2026-05-07 23:50 -18.15206 -67.65342 36447 ft 458 kts 336°
2026-05-07 23:50 -18.09161 -67.67490 36449 ft 458 kts 336°
2026-05-07 23:51 -18.03120 -67.69634 36447 ft 458 kts 336°
2026-05-07 23:51 -17.97077 -67.71775 36448 ft 459 kts 336°
2026-05-07 23:52 -17.91029 -67.73917 36435 ft 459 kts 336°
2026-05-07 23:52 -17.84974 -67.76060 36411 ft 459 kts 336°
2026-05-07 23:53 -17.78919 -67.78200 36418 ft 460 kts 336°
2026-05-07 23:53 -17.72860 -67.80338 36417 ft 460 kts 336°
2026-05-07 23:54 -17.66796 -67.82481 36414 ft 460 kts 336°
2026-05-07 23:54 -17.60730 -67.84623 36421 ft 460 kts 336°
2026-05-07 23:55 -17.54666 -67.86764 36425 ft 460 kts 336°
2026-05-07 23:55 -17.48593 -67.88903 36429 ft 460 kts 336°
2026-05-07 23:56 -17.42527 -67.91040 36431 ft 460 kts 336°
2026-05-07 23:56 -17.36455 -67.93186 36453 ft 460 kts 336°
2026-05-07 23:57 -17.30387 -67.95356 36467 ft 461 kts 336°
2026-05-07 23:57 -17.24315 -67.97530 36476 ft 461 kts 336°
2026-05-07 23:58 -17.18246 -67.99703 36486 ft 461 kts 336°
2026-05-07 23:58 -17.12176 -68.01873 36499 ft 461 kts 336°
2026-05-07 23:59 -17.06104 -68.04041 36510 ft 461 kts 336°
2026-05-07 23:59 -17.00050 -68.06199 36525 ft 457 kts 336°
2026-05-08 00:00 -16.94066 -68.08331 36536 ft 453 kts 336°
2026-05-08 00:00 -16.88109 -68.10455 36548 ft 453 kts 336°
2026-05-08 00:01 -16.82142 -68.12582 36561 ft 453 kts 336°
2026-05-08 00:01 -16.76177 -68.14706 36568 ft 453 kts 337°
2026-05-08 00:02 -16.70209 -68.16829 36574 ft 453 kts 336°
2026-05-08 00:02 -16.64237 -68.18955 36584 ft 454 kts 337°
2026-05-08 00:03 -16.58253 -68.21080 36586 ft 454 kts 337°
2026-05-08 00:03 -16.52271 -68.23197 36586 ft 454 kts 337°
2026-05-08 00:04 -16.46297 -68.25340 36586 ft 454 kts 335°
2026-05-08 00:04 -16.40418 -68.27726 36585 ft 453 kts 334°
2026-05-08 00:05 -16.35559 -68.29783 36580 ft 453 kts 334°
2026-05-08 00:05 -16.29714 -68.32253 36578 ft 454 kts 334°
2026-05-08 00:06 -16.23819 -68.34727 36565 ft 453 kts 334°
2026-05-08 00:06 -16.17974 -68.37171 36549 ft 453 kts 334°
2026-05-08 00:07 -16.12122 -68.39615 36548 ft 453 kts 334°
2026-05-08 00:07 -16.06302 -68.42047 36527 ft 454 kts 334°
2026-05-08 00:08 -16.00446 -68.44491 36516 ft 454 kts 334°
2026-05-08 00:08 -15.94579 -68.46941 36501 ft 455 kts 334°
2026-05-08 00:09 -15.88697 -68.49400 36481 ft 457 kts 334°
2026-05-08 00:09 -15.82719 -68.51901 36470 ft 462 kts 334°
2026-05-08 00:10 -15.76772 -68.54387 36447 ft 465 kts 334°
2026-05-08 00:10 -15.70760 -68.56892 36432 ft 465 kts 334°
2026-05-08 00:11 -15.64764 -68.59393 36413 ft 465 kts 334°
2026-05-08 00:11 -15.58756 -68.61899 36396 ft 465 kts 334°
2026-05-08 00:12 -15.52751 -68.64399 36384 ft 465 kts 334°
2026-05-08 00:12 -15.46747 -68.66900 36376 ft 465 kts 334°
2026-05-08 00:13 -15.40736 -68.69403 36365 ft 466 kts 334°
2026-05-08 00:13 -15.34718 -68.71906 36332 ft 466 kts 334°
2026-05-08 00:14 -15.28702 -68.74405 36312 ft 466 kts 334°
2026-05-08 00:14 -15.22684 -68.76903 36320 ft 466 kts 335°
2026-05-08 00:15 -15.16662 -68.79395 36286 ft 466 kts 335°
2026-05-08 00:15 -15.10633 -68.81896 36279 ft 467 kts 334°
2026-05-08 00:16 -15.04619 -68.84391 36271 ft 466 kts 335°
2026-05-08 00:16 -14.98604 -68.86885 36260 ft 465 kts 335°
2026-05-08 00:17 -14.92608 -68.89370 36256 ft 464 kts 335°
2026-05-08 00:17 -14.86602 -68.91852 36249 ft 465 kts 335°
2026-05-08 00:18 -14.80592 -68.94335 36239 ft 465 kts 335°
2026-05-08 00:18 -14.74575 -68.96822 36223 ft 466 kts 335°
2026-05-08 00:19 -14.68553 -68.99312 36223 ft 467 kts 335°
2026-05-08 00:19 -14.62521 -69.01801 36215 ft 467 kts 335°
2026-05-08 00:20 -14.56475 -69.04295 36204 ft 468 kts 336°
2026-05-08 00:20 -14.50429 -69.06787 36194 ft 468 kts 336°
2026-05-08 00:21 -14.44385 -69.09276 36187 ft 468 kts 336°
2026-05-08 00:21 -14.38327 -69.11773 36168 ft 469 kts 336°
2026-05-08 00:22 -14.32266 -69.14272 36129 ft 469 kts 336°
2026-05-08 00:22 -14.26196 -69.16776 36085 ft 470 kts 336°
2026-05-08 00:23 -14.20115 -69.19283 36062 ft 471 kts 336°
2026-05-08 00:23 -14.14028 -69.21789 36058 ft 471 kts 336°
2026-05-08 00:24 -14.07894 -69.24316 36089 ft 472 kts 336°
2026-05-08 00:24 -14.01803 -69.26819 36085 ft 472 kts 336°
2026-05-08 00:25 -13.95696 -69.29332 36077 ft 473 kts 336°
2026-05-08 00:25 -13.89563 -69.31853 36071 ft 475 kts 336°
2026-05-08 00:26 -13.83465 -69.34354 36063 ft 475 kts 336°
2026-05-08 00:26 -13.77288 -69.36888 36050 ft 475 kts 336°
2026-05-08 00:27 -13.71142 -69.39409 36029 ft 475 kts 336°
2026-05-08 00:27 -13.65000 -69.41927 36016 ft 475 kts 336°
2026-05-08 00:28 -13.58849 -69.44445 36006 ft 475 kts 336°
2026-05-08 00:28 -13.52703 -69.46962 35988 ft 475 kts 336°
2026-05-08 00:29 -13.46564 -69.49475 35949 ft 475 kts 336°
2026-05-08 00:29 -13.40418 -69.51990 35933 ft 475 kts 336°
2026-05-08 00:30 -13.34273 -69.54502 35921 ft 475 kts 336°
2026-05-08 00:30 -13.28125 -69.57012 35910 ft 476 kts 336°
2026-05-08 00:31 -13.21969 -69.59521 35899 ft 475 kts 336°
2026-05-08 00:31 -13.15820 -69.62027 35890 ft 475 kts 336°
2026-05-08 00:32 -13.09678 -69.64533 35881 ft 475 kts 336°
2026-05-08 00:32 -13.03571 -69.67023 35868 ft 475 kts 336°
2026-05-08 00:33 -12.97387 -69.69543 35864 ft 475 kts 336°
2026-05-08 00:33 -12.91239 -69.72047 35869 ft 475 kts 336°
2026-05-08 00:34 -12.85131 -69.74532 35868 ft 475 kts 336°
2026-05-08 00:34 -12.78985 -69.77032 35864 ft 475 kts 336°
2026-05-08 00:35 -12.72840 -69.79531 35861 ft 475 kts 336°
2026-05-08 00:35 -12.66699 -69.82026 35873 ft 475 kts 336°
2026-05-08 00:36 -12.60557 -69.84520 35875 ft 475 kts 335°
2026-05-08 00:36 -12.54417 -69.87013 35868 ft 475 kts 335°
2026-05-08 00:37 -12.48280 -69.89500 35863 ft 474 kts 335°
2026-05-08 00:38 -12.39036 -69.93244 35874 ft 474 kts 335°
2026-05-08 00:38 -12.32897 -69.95732 35872 ft 475 kts 335°
2026-05-08 00:39 -12.26762 -69.98218 35887 ft 474 kts 335°
2026-05-08 00:39 -12.20634 -70.00698 35889 ft 474 kts 335°
2026-05-08 00:40 -12.14502 -70.03177 35888 ft 474 kts 335°
2026-05-08 00:40 -12.08373 -70.05655 35896 ft 474 kts 335°
2026-05-08 00:41 -12.02245 -70.08133 35898 ft 473 kts 335°
2026-05-08 00:41 -11.96116 -70.10609 35898 ft 474 kts 335°
2026-05-08 00:42 -11.89991 -70.13082 35907 ft 474 kts 335°
2026-05-08 00:42 -11.83899 -70.15542 35907 ft 474 kts 335°
2026-05-08 00:43 -11.77733 -70.18029 35907 ft 474 kts 335°
2026-05-08 00:43 -11.71599 -70.20500 35907 ft 474 kts 335°
2026-05-08 00:44 -11.66504 -70.22550 35915 ft 474 kts 335°
2026-05-08 00:44 -11.60371 -70.25020 35917 ft 474 kts 335°
2026-05-08 00:45 -11.54236 -70.27491 35915 ft 474 kts 335°
2026-05-08 00:45 -11.47101 -70.30363 35915 ft 475 kts 335°
2026-05-08 00:46 -11.41955 -70.32432 35915 ft 475 kts 335°
2026-05-08 00:46 -11.35812 -70.34902 35915 ft 475 kts 335°
2026-05-08 00:47 -11.29670 -70.37369 35915 ft 475 kts 335°
2026-05-08 00:47 -11.23522 -70.39839 35926 ft 475 kts 335°
2026-05-08 00:48 -11.17367 -70.42311 35925 ft 476 kts 335°
2026-05-08 00:48 -11.11210 -70.44782 35924 ft 476 kts 335°
2026-05-08 00:49 -11.05049 -70.47254 35924 ft 476 kts 335°
2026-05-08 00:49 -10.98887 -70.49724 35931 ft 476 kts 335°
2026-05-08 00:50 -10.92722 -70.52192 35951 ft 476 kts 335°
2026-05-08 00:50 -10.86550 -70.54664 35953 ft 476 kts 335°
2026-05-08 00:51 -10.80384 -70.57132 35952 ft 477 kts 335°
2026-05-08 00:51 -10.74209 -70.59606 35952 ft 477 kts 335°
2026-05-08 00:52 -10.68031 -70.62076 35952 ft 477 kts 335°
2026-05-08 00:52 -10.61843 -70.64549 35953 ft 478 kts 335°
2026-05-08 00:53 -10.55657 -70.67020 35952 ft 478 kts 335°
2026-05-08 00:53 -10.49475 -70.69491 35953 ft 478 kts 336°
2026-05-08 00:54 -10.43290 -70.71961 35952 ft 478 kts 335°
2026-05-08 00:54 -10.37101 -70.74433 35953 ft 478 kts 335°
2026-05-08 00:55 -10.30912 -70.76903 35949 ft 478 kts 335°
2026-05-08 00:55 -10.24717 -70.79375 35944 ft 478 kts 335°
2026-05-08 00:56 -10.18528 -70.81841 35944 ft 478 kts 336°
2026-05-08 00:56 -10.12376 -70.84290 35942 ft 478 kts 335°
2026-05-08 00:57 -10.06146 -70.86770 35943 ft 478 kts 336°
2026-05-08 00:57 -9.99994 -70.89220 35944 ft 478 kts 336°
2026-05-08 00:58 -9.93792 -70.91688 35953 ft 480 kts 335°
2026-05-08 00:58 -9.87579 -70.94160 35953 ft 480 kts 335°
2026-05-08 00:59 -9.81362 -70.96632 35952 ft 480 kts 335°
2026-05-08 00:59 -9.75138 -70.99104 35952 ft 480 kts 335°
2026-05-08 01:00 -9.68921 -71.01571 35953 ft 480 kts 335°
2026-05-08 01:00 -9.62703 -71.04039 35953 ft 480 kts 335°
2026-05-08 01:01 -9.56490 -71.06504 35945 ft 480 kts 335°
2026-05-08 01:01 -9.50276 -71.08970 35945 ft 480 kts 335°
2026-05-08 01:02 -9.44056 -71.11434 35943 ft 480 kts 336°
2026-05-08 01:02 -9.37828 -71.13901 35944 ft 480 kts 336°
2026-05-08 01:03 -9.31598 -71.16369 35944 ft 480 kts 336°
2026-05-08 01:03 -9.25370 -71.18837 35935 ft 480 kts 336°
2026-05-08 01:04 -9.19144 -71.21301 35934 ft 481 kts 336°
2026-05-08 01:04 -9.12918 -71.23764 35934 ft 481 kts 336°
2026-05-08 01:05 -9.06679 -71.26231 35934 ft 481 kts 336°
2026-05-08 01:05 -9.00439 -71.28676 35919 ft 481 kts 336°
2026-05-08 01:06 -8.94185 -71.31110 35891 ft 482 kts 336°
2026-05-08 01:06 -8.87932 -71.33544 35889 ft 482 kts 336°
2026-05-08 01:07 -8.81671 -71.35982 35896 ft 482 kts 336°
2026-05-08 01:07 -8.75408 -71.38419 35897 ft 482 kts 336°
2026-05-08 01:08 -8.69143 -71.40855 35896 ft 482 kts 336°
2026-05-08 01:08 -8.62878 -71.43292 35898 ft 482 kts 336°
2026-05-08 01:09 -8.56615 -71.45727 35898 ft 483 kts 336°
2026-05-08 01:09 -8.50352 -71.48179 35897 ft 483 kts 336°
2026-05-08 01:10 -8.44091 -71.50646 35896 ft 483 kts 336°
2026-05-08 01:10 -8.37835 -71.53113 35884 ft 483 kts 336°
2026-05-08 01:11 -8.31574 -71.55580 35865 ft 483 kts 336°
2026-05-08 01:11 -8.25306 -71.58050 35879 ft 483 kts 336°
2026-05-08 01:12 -8.19038 -71.60518 35879 ft 483 kts 336°
2026-05-08 01:12 -8.12776 -71.62984 35880 ft 483 kts 336°
2026-05-08 01:13 -8.06514 -71.65447 35879 ft 483 kts 336°
2026-05-08 01:13 -8.00247 -71.67911 35865 ft 484 kts 336°
2026-05-08 01:14 -7.93972 -71.70378 35881 ft 484 kts 336°
2026-05-08 01:14 -7.87703 -71.72842 35880 ft 484 kts 336°
2026-05-08 01:15 -7.81425 -71.75306 35866 ft 484 kts 336°
2026-05-08 01:15 -7.75163 -71.77765 35880 ft 484 kts 336°
2026-05-08 01:16 -7.68878 -71.80232 35866 ft 484 kts 336°
2026-05-08 01:16 -7.62602 -71.82694 35864 ft 484 kts 336°
2026-05-08 01:17 -7.56321 -71.85160 35880 ft 484 kts 336°
2026-05-08 01:17 -7.50041 -71.87623 35865 ft 484 kts 336°
2026-05-08 01:18 -7.43767 -71.90083 35880 ft 485 kts 336°
2026-05-08 01:18 -7.37474 -71.92551 35880 ft 485 kts 336°
2026-05-08 01:19 -7.31180 -71.95018 35864 ft 485 kts 336°
2026-05-08 01:19 -7.24894 -71.97481 35879 ft 485 kts 336°
2026-05-08 01:20 -7.18596 -71.99947 35864 ft 486 kts 336°
2026-05-08 01:20 -7.12293 -72.02418 35881 ft 486 kts 336°
2026-05-08 01:21 -7.06014 -72.04883 35880 ft 486 kts 336°
2026-05-08 01:21 -6.99692 -72.07366 35865 ft 486 kts 336°
2026-05-08 01:22 -6.93403 -72.09836 35865 ft 487 kts 336°
2026-05-08 01:22 -6.87069 -72.12319 35874 ft 487 kts 336°
2026-05-08 01:23 -6.80749 -72.14797 35881 ft 487 kts 336°
2026-05-08 01:23 -6.74429 -72.17276 35880 ft 488 kts 336°
2026-05-08 01:24 -6.68101 -72.19756 35886 ft 488 kts 336°
2026-05-08 01:24 -6.61775 -72.22235 35886 ft 488 kts 336°
2026-05-08 01:25 -6.55441 -72.24716 35887 ft 489 kts 336°
2026-05-08 01:25 -6.49102 -72.27197 35888 ft 489 kts 336°
2026-05-08 01:26 -6.42762 -72.29682 35888 ft 489 kts 336°
2026-05-08 01:26 -6.36412 -72.32165 35888 ft 489 kts 336°
2026-05-08 01:27 -6.30071 -72.34643 35888 ft 489 kts 336°
2026-05-08 01:27 -6.24801 -72.36704 35888 ft 489 kts 336°
2026-05-08 01:28 -6.18465 -72.39182 35888 ft 489 kts 336°
2026-05-08 01:28 -6.12120 -72.41664 35888 ft 489 kts 336°
2026-05-08 01:29 -6.05774 -72.44143 35889 ft 489 kts 336°
2026-05-08 01:29 -5.99430 -72.46623 35889 ft 489 kts 336°
2026-05-08 01:30 -5.93090 -72.49099 35887 ft 490 kts 336°
2026-05-08 01:30 -5.86739 -72.51581 35887 ft 490 kts 336°
2026-05-08 01:31 -5.80390 -72.54060 35888 ft 489 kts 336°
2026-05-08 01:31 -5.74040 -72.56540 35888 ft 490 kts 336°
2026-05-08 01:32 -5.67688 -72.59021 35888 ft 490 kts 336°
2026-05-08 01:32 -5.61336 -72.61500 35887 ft 490 kts 336°
2026-05-08 01:33 -5.54982 -72.63977 35888 ft 490 kts 336°
2026-05-08 01:33 -5.48635 -72.66452 35888 ft 490 kts 336°
2026-05-08 01:34 -5.42280 -72.68929 35881 ft 490 kts 336°
2026-05-08 01:34 -5.35932 -72.71407 35882 ft 490 kts 336°
2026-05-08 01:35 -5.29579 -72.73882 35882 ft 489 kts 336°
2026-05-08 01:35 -5.23231 -72.76354 35880 ft 489 kts 336°
2026-05-08 01:36 -5.16886 -72.78826 35882 ft 489 kts 336°
2026-05-08 01:36 -5.10533 -72.81301 35882 ft 490 kts 336°
2026-05-08 01:37 -5.04183 -72.83770 35882 ft 490 kts 336°
2026-05-08 01:37 -4.97828 -72.86237 35883 ft 490 kts 336°
2026-05-08 01:38 -4.91468 -72.88706 35883 ft 489 kts 336°
2026-05-08 01:38 -4.85116 -72.91170 35881 ft 489 kts 336°
2026-05-08 01:39 -4.78768 -72.93632 35881 ft 489 kts 336°
2026-05-08 01:39 -4.72416 -72.96097 35880 ft 489 kts 336°
2026-05-08 01:40 -4.66068 -72.98559 35880 ft 489 kts 336°
2026-05-08 01:40 -4.59723 -73.01019 35865 ft 489 kts 336°
2026-05-08 01:41 -4.53378 -73.03479 35869 ft 489 kts 336°
2026-05-08 01:41 -4.47036 -73.05937 35880 ft 489 kts 336°
2026-05-08 01:42 -4.40688 -73.08398 35879 ft 489 kts 336°
2026-05-08 01:42 -4.34340 -73.10857 35875 ft 489 kts 336°
2026-05-08 01:43 -4.27994 -73.13315 35880 ft 489 kts 336°
2026-05-08 01:43 -4.21650 -73.15772 35887 ft 489 kts 336°
2026-05-08 01:44 -4.15302 -73.18231 35888 ft 489 kts 336°
2026-05-08 01:44 -4.08951 -73.20689 35888 ft 489 kts 336°
2026-05-08 01:45 -4.02612 -73.23143 35888 ft 489 kts 336°
2026-05-08 01:45 -3.96259 -73.25603 35887 ft 490 kts 336°
2026-05-08 01:46 -3.89905 -73.28061 35888 ft 490 kts 336°
2026-05-08 01:46 -3.83542 -73.30521 35887 ft 490 kts 337°
2026-05-08 01:47 -3.76906 -73.32134 35890 ft 495 kts 349°
2026-05-08 01:47 -3.70047 -73.32882 35889 ft 496 kts 352°
2026-05-08 01:48 -3.59752 -73.33935 35888 ft 496 kts 351°
2026-05-08 01:48 -3.52903 -73.34729 35888 ft 496 kts 351°
2026-05-08 01:49 -3.46052 -73.35543 35888 ft 496 kts 351°
2026-05-08 01:49 -3.39203 -73.36352 35888 ft 496 kts 351°
2026-05-08 01:50 -3.32346 -73.37162 35888 ft 496 kts 351°
2026-05-08 01:50 -3.25492 -73.37966 35888 ft 496 kts 351°
2026-05-08 01:51 -3.18638 -73.38773 35887 ft 496 kts 351°
2026-05-08 01:51 -3.11772 -73.39584 35887 ft 496 kts 351°
2026-05-08 01:52 -3.04920 -73.40392 35888 ft 496 kts 351°
2026-05-08 01:52 -2.98055 -73.41200 35887 ft 496 kts 351°
2026-05-08 01:53 -2.91198 -73.42007 35888 ft 496 kts 351°
2026-05-08 01:53 -2.84337 -73.42815 35888 ft 497 kts 351°
2026-05-08 01:54 -2.77470 -73.43623 35888 ft 497 kts 351°
2026-05-08 01:54 -2.70599 -73.44431 35888 ft 497 kts 351°
2026-05-08 01:55 -2.63722 -73.45240 35887 ft 497 kts 351°
2026-05-08 01:55 -2.56848 -73.46050 35888 ft 498 kts 351°
2026-05-08 01:56 -2.49970 -73.46859 35887 ft 498 kts 351°
2026-05-08 01:56 -2.43090 -73.47668 35901 ft 498 kts 351°
2026-05-08 01:57 -2.36201 -73.48477 35906 ft 498 kts 351°
2026-05-08 01:57 -2.29319 -73.49287 35906 ft 498 kts 351°
2026-05-08 01:58 -2.22427 -73.50097 35906 ft 499 kts 351°
2026-05-08 01:58 -2.15535 -73.50908 35905 ft 499 kts 351°
2026-05-08 01:59 -2.08649 -73.51717 35908 ft 499 kts 351°
2026-05-08 01:59 -2.01758 -73.52529 35914 ft 499 kts 351°
2026-05-08 02:00 -1.94864 -73.53340 35915 ft 499 kts 351°
2026-05-08 02:00 -1.87968 -73.54149 35915 ft 499 kts 351°
2026-05-08 02:01 -1.81076 -73.54958 35915 ft 499 kts 351°
2026-05-08 02:01 -1.74175 -73.55769 35916 ft 499 kts 351°
2026-05-08 02:02 -1.67282 -73.56579 35915 ft 499 kts 351°
2026-05-08 02:02 -1.60386 -73.57390 35915 ft 499 kts 351°
2026-05-08 02:03 -1.53493 -73.58200 35915 ft 498 kts 351°
2026-05-08 02:03 -1.46610 -73.59010 35918 ft 498 kts 351°
2026-05-08 02:04 -1.39726 -73.59819 35927 ft 498 kts 352°
2026-05-08 02:04 -1.32845 -73.60626 35925 ft 498 kts 351°
2026-05-08 02:05 -1.25968 -73.61433 35925 ft 497 kts 352°
2026-05-08 02:05 -1.19102 -73.62239 35925 ft 497 kts 352°
2026-05-08 02:06 -1.12239 -73.63148 35920 ft 495 kts 346°
2026-05-08 02:06 -1.08967 -73.64147 35928 ft 491 kts 335°
2026-05-08 02:06 -1.05923 -73.65685 35934 ft 489 kts 327°
2026-05-08 02:07 -1.00228 -73.69391 35935 ft 488 kts 324°
2026-05-08 02:07 -0.94529 -73.73097 35943 ft 489 kts 326°
2026-05-08 02:08 -0.89717 -73.76060 35943 ft 489 kts 327°
2026-05-08 02:08 -0.83890 -73.79562 35942 ft 489 kts 327°
2026-05-08 02:09 -0.78054 -73.83056 35943 ft 489 kts 327°
2026-05-08 02:09 -0.72225 -73.86555 35943 ft 489 kts 327°
2026-05-08 02:10 -0.66395 -73.90058 35943 ft 488 kts 327°
2026-05-08 02:10 -0.60579 -73.93555 35943 ft 488 kts 327°
2026-05-08 02:11 -0.54749 -73.97055 35943 ft 488 kts 327°
2026-05-08 02:11 -0.48935 -74.00548 35943 ft 488 kts 327°
2026-05-08 02:12 -0.43109 -74.04049 35943 ft 488 kts 327°
2026-05-08 02:12 -0.37293 -74.07543 35919 ft 488 kts 327°
2026-05-08 02:13 -0.31470 -74.11041 35915 ft 488 kts 328°
2026-05-08 02:13 -0.25660 -74.14530 35915 ft 488 kts 327°
2026-05-08 02:14 -0.19838 -74.18027 35917 ft 488 kts 327°
2026-05-08 02:14 -0.14022 -74.21521 35924 ft 488 kts 327°
2026-05-08 02:15 -0.08200 -74.25021 35924 ft 488 kts 327°
2026-05-08 02:15 -0.02381 -74.28518 35924 ft 488 kts 327°
2026-05-08 02:16 0.03437 -74.32012 35923 ft 488 kts 328°
2026-05-08 02:16 0.09257 -74.35509 35925 ft 488 kts 327°
2026-05-08 02:17 0.15070 -74.39001 35924 ft 488 kts 327°
2026-05-08 02:17 0.20889 -74.42496 35924 ft 488 kts 327°
2026-05-08 02:18 0.26704 -74.45989 35924 ft 488 kts 327°
2026-05-08 02:18 0.32525 -74.49487 35925 ft 488 kts 327°
2026-05-08 02:19 0.38340 -74.52981 35926 ft 488 kts 327°
2026-05-08 02:19 0.44159 -74.56477 35924 ft 488 kts 328°
2026-05-08 02:20 0.49984 -74.59977 35924 ft 488 kts 328°
2026-05-08 02:20 0.55805 -74.63472 35935 ft 488 kts 328°
2026-05-08 02:21 0.61631 -74.66973 35934 ft 488 kts 328°
2026-05-08 02:21 0.67445 -74.70468 35935 ft 488 kts 328°
2026-05-08 02:22 0.73264 -74.73964 35936 ft 488 kts 327°
2026-05-08 02:22 0.79092 -74.77466 35939 ft 488 kts 328°
2026-05-08 02:23 0.84918 -74.80961 35936 ft 488 kts 328°
2026-05-08 02:23 0.90752 -74.84444 35937 ft 488 kts 328°
2026-05-08 02:24 0.96585 -74.87924 35936 ft 488 kts 328°
2026-05-08 02:24 1.02416 -74.91405 35938 ft 488 kts 328°
2026-05-08 02:25 1.08243 -74.94884 35929 ft 488 kts 328°
2026-05-08 02:25 1.14075 -74.98366 35929 ft 488 kts 328°
2026-05-08 02:26 1.19900 -75.01842 35934 ft 488 kts 328°
2026-05-08 02:26 1.25733 -75.05325 35933 ft 488 kts 328°
2026-05-08 02:27 1.31556 -75.08803 35932 ft 488 kts 328°
2026-05-08 02:27 1.37386 -75.12284 35936 ft 488 kts 328°
2026-05-08 02:28 1.43222 -75.15769 35936 ft 488 kts 328°
2026-05-08 02:28 1.49045 -75.19246 35932 ft 488 kts 328°
2026-05-08 02:29 1.54869 -75.22725 35936 ft 488 kts 328°
2026-05-08 02:29 1.60702 -75.26210 35936 ft 488 kts 328°
2026-05-08 02:30 1.66527 -75.29689 35930 ft 487 kts 328°
2026-05-08 02:30 1.72351 -75.33168 35941 ft 487 kts 328°
2026-05-08 02:31 1.78172 -75.36646 35943 ft 487 kts 328°
2026-05-08 02:31 1.83990 -75.40123 35944 ft 487 kts 328°
2026-05-08 02:32 1.89807 -75.43600 35944 ft 487 kts 328°
2026-05-08 02:32 1.95623 -75.47078 35952 ft 487 kts 328°
2026-05-08 02:33 2.01438 -75.50552 35952 ft 487 kts 328°
2026-05-08 02:33 2.07249 -75.54023 35961 ft 486 kts 328°
2026-05-08 02:34 2.13051 -75.57493 35972 ft 486 kts 328°
2026-05-08 02:34 2.18860 -75.60965 35986 ft 486 kts 328°
2026-05-08 02:35 2.24660 -75.64435 35992 ft 486 kts 328°
2026-05-08 02:35 2.30467 -75.67906 35995 ft 486 kts 328°
2026-05-08 02:36 2.36275 -75.71378 36003 ft 486 kts 328°
2026-05-08 02:36 2.42077 -75.74848 36010 ft 486 kts 328°
2026-05-08 02:37 2.47878 -75.78318 36017 ft 486 kts 328°
2026-05-08 02:37 2.53679 -75.81785 36009 ft 486 kts 328°
2026-05-08 02:38 2.59484 -75.85259 36018 ft 486 kts 328°
2026-05-08 02:38 2.65289 -75.88734 36017 ft 486 kts 328°
2026-05-08 02:39 2.71090 -75.92205 36025 ft 486 kts 328°
2026-05-08 02:39 2.76901 -75.95682 36024 ft 487 kts 328°
2026-05-08 02:40 2.82712 -75.99160 36036 ft 487 kts 328°
2026-05-08 02:40 2.88517 -76.02633 36038 ft 486 kts 328°
2026-05-08 02:41 2.94322 -76.06111 36036 ft 486 kts 328°
2026-05-08 02:41 3.00126 -76.09585 36050 ft 486 kts 328°
2026-05-08 02:42 3.05932 -76.13061 36051 ft 486 kts 328°
2026-05-08 02:42 3.11731 -76.16534 36050 ft 487 kts 328°
2026-05-08 02:43 3.17542 -76.20015 36038 ft 486 kts 328°
2026-05-08 02:43 3.23345 -76.23493 36035 ft 486 kts 328°
2026-05-08 02:44 3.29152 -76.26970 36032 ft 486 kts 328°
2026-05-08 02:44 3.34958 -76.30448 36026 ft 487 kts 328°
2026-05-08 02:45 3.40771 -76.33932 36027 ft 487 kts 327°
2026-05-08 02:45 3.46583 -76.37415 36022 ft 487 kts 327°
2026-05-08 02:46 3.52396 -76.40900 36017 ft 487 kts 327°
2026-05-08 02:46 3.58200 -76.44380 36017 ft 487 kts 327°
2026-05-08 02:47 3.64017 -76.47868 36018 ft 487 kts 327°
2026-05-08 02:47 3.69827 -76.51352 36017 ft 487 kts 327°
2026-05-08 02:48 3.75645 -76.54843 36011 ft 487 kts 327°
2026-05-08 02:48 3.81455 -76.58329 36001 ft 487 kts 327°
2026-05-08 02:49 3.86282 -76.61222 35988 ft 487 kts 327°
2026-05-08 02:49 3.92101 -76.64714 35972 ft 487 kts 327°
2026-05-08 02:50 3.97905 -76.68198 35957 ft 487 kts 327°
2026-05-08 02:50 4.03716 -76.71688 35953 ft 487 kts 328°
2026-05-08 02:51 4.09521 -76.75174 35945 ft 486 kts 328°
2026-05-08 02:51 4.15325 -76.78660 35943 ft 486 kts 328°
2026-05-08 02:52 4.21123 -76.82141 35943 ft 486 kts 328°
2026-05-08 02:52 4.26912 -76.85619 35943 ft 485 kts 328°
2026-05-08 02:53 4.32706 -76.89099 35943 ft 485 kts 328°
2026-05-08 02:53 4.38491 -76.92575 35943 ft 485 kts 328°
2026-05-08 02:54 4.44272 -76.96050 35944 ft 485 kts 328°
2026-05-08 02:54 4.50058 -76.99530 35950 ft 485 kts 328°
2026-05-08 02:55 4.58729 -77.04745 35952 ft 484 kts 328°
2026-05-08 02:56 4.64504 -77.08218 35952 ft 484 kts 328°
2026-05-08 02:56 4.70277 -77.11688 35935 ft 484 kts 328°
2026-05-08 02:57 4.76049 -77.15161 35901 ft 484 kts 328°
2026-05-08 02:57 4.81828 -77.18638 35897 ft 484 kts 328°
2026-05-08 02:58 4.87592 -77.22108 35896 ft 484 kts 328°
2026-05-08 02:58 4.93366 -77.25583 35888 ft 484 kts 328°
2026-05-08 02:59 4.99134 -77.29056 35887 ft 483 kts 328°
2026-05-08 02:59 5.04897 -77.32526 35887 ft 483 kts 328°
2026-05-08 03:00 5.10657 -77.35996 35888 ft 483 kts 328°
2026-05-08 03:00 5.16416 -77.39467 35888 ft 483 kts 328°
2026-05-08 03:01 5.22169 -77.42935 35888 ft 482 kts 328°
2026-05-08 03:01 5.27924 -77.46407 35888 ft 482 kts 328°
2026-05-08 03:02 5.33674 -77.49875 35889 ft 483 kts 328°
2026-05-08 03:02 5.39426 -77.53344 35888 ft 482 kts 328°
2026-05-08 03:03 5.45175 -77.56809 35887 ft 482 kts 328°
2026-05-08 03:03 5.50929 -77.60281 35887 ft 482 kts 329°
2026-05-08 03:04 5.56678 -77.63749 35888 ft 482 kts 329°
2026-05-08 03:04 5.62415 -77.67211 35887 ft 481 kts 329°
2026-05-08 03:05 5.68157 -77.70678 35887 ft 481 kts 329°
2026-05-08 03:05 5.73889 -77.74139 35888 ft 481 kts 329°
2026-05-08 03:06 5.79613 -77.77595 35880 ft 480 kts 329°
2026-05-08 03:06 5.85339 -77.81056 35886 ft 480 kts 329°
2026-05-08 03:07 5.91061 -77.84514 35888 ft 480 kts 329°
2026-05-08 03:07 5.96779 -77.87968 35888 ft 480 kts 329°
2026-05-08 03:08 6.02497 -77.91428 35887 ft 477 kts 329°
2026-05-08 03:08 6.05299 -77.93124 35882 ft 465 kts 329°
2026-05-08 03:08 6.08060 -77.94795 35886 ft 463 kts 329°
2026-05-08 03:09 6.13573 -77.98129 35888 ft 462 kts 329°
2026-05-08 03:09 6.19080 -78.01461 35888 ft 462 kts 329°
2026-05-08 03:10 6.24580 -78.04790 35888 ft 462 kts 329°
2026-05-08 03:10 6.30089 -78.08124 35887 ft 462 kts 329°
2026-05-08 03:11 6.35589 -78.11453 35888 ft 462 kts 329°
2026-05-08 03:11 6.41097 -78.14790 35888 ft 463 kts 329°
2026-05-08 03:12 6.46603 -78.18125 35887 ft 463 kts 329°
2026-05-08 03:12 6.52125 -78.21470 35887 ft 463 kts 329°
2026-05-08 03:13 6.57638 -78.24811 35888 ft 463 kts 329°
2026-05-08 03:13 6.63154 -78.28155 35888 ft 463 kts 329°
2026-05-08 03:14 6.68669 -78.31499 35888 ft 463 kts 329°
2026-05-08 03:14 6.74184 -78.34850 35887 ft 463 kts 329°
2026-05-08 03:15 6.79696 -78.38205 35887 ft 463 kts 329°
2026-05-08 03:15 6.85204 -78.41559 35888 ft 463 kts 329°
2026-05-08 03:16 6.90718 -78.44918 35888 ft 463 kts 329°
2026-05-08 03:16 6.96231 -78.48277 35887 ft 463 kts 329°
2026-05-08 03:17 7.01746 -78.51636 35887 ft 464 kts 329°
2026-05-08 03:17 7.07271 -78.55005 35888 ft 464 kts 329°
2026-05-08 03:18 7.12794 -78.58370 35887 ft 464 kts 329°
2026-05-08 03:18 7.18324 -78.61742 35888 ft 464 kts 329°
2026-05-08 03:19 7.23848 -78.65110 35887 ft 464 kts 329°
2026-05-08 03:19 7.29370 -78.68479 35888 ft 464 kts 329°
2026-05-08 03:20 7.34900 -78.71855 35887 ft 464 kts 329°
2026-05-08 03:20 7.40427 -78.75229 35881 ft 464 kts 329°
2026-05-08 03:21 7.45947 -78.78601 35861 ft 464 kts 329°
2026-05-08 03:21 7.51226 -78.82316 35648 ft 465 kts 315°
2026-05-08 03:21 7.53398 -78.84735 35267 ft 466 kts 309°
2026-05-08 03:22 7.55381 -78.87326 34691 ft 468 kts 307°
2026-05-08 03:22 7.57301 -78.89977 34084 ft 469 kts 306°
2026-05-08 03:22 7.59230 -78.92636 33492 ft 471 kts 307°
2026-05-08 03:22 7.61198 -78.95296 32893 ft 474 kts 308°
2026-05-08 03:23 7.63200 -78.97950 32295 ft 477 kts 308°
2026-05-08 03:23 7.65229 -79.00602 31692 ft 479 kts 309°
2026-05-08 03:23 7.67276 -79.03257 31087 ft 481 kts 309°
2026-05-08 03:23 7.69341 -79.05927 30464 ft 483 kts 309°
2026-05-08 03:24 7.71405 -79.08594 29823 ft 485 kts 309°
2026-05-08 03:24 7.73487 -79.11287 29181 ft 487 kts 309°
2026-05-08 03:24 7.75575 -79.13991 28537 ft 489 kts 309°
2026-05-08 03:24 7.77671 -79.16707 27892 ft 491 kts 309°
2026-05-08 03:25 7.79763 -79.19420 27215 ft 490 kts 309°
2026-05-08 03:25 7.81851 -79.22128 26540 ft 487 kts 309°
2026-05-08 03:25 7.83922 -79.24813 25865 ft 483 kts 309°
2026-05-08 03:25 7.85977 -79.27478 25200 ft 479 kts 309°
2026-05-08 03:26 7.88011 -79.30117 24543 ft 475 kts 309°
2026-05-08 03:26 7.90028 -79.32734 23893 ft 471 kts 309°
2026-05-08 03:26 7.92029 -79.35334 23236 ft 467 kts 309°
2026-05-08 03:26 7.94016 -79.37915 22643 ft 462 kts 309°
2026-05-08 03:27 7.95978 -79.40462 22239 ft 459 kts 309°
2026-05-08 03:27 7.97927 -79.42993 22075 ft 450 kts 309°
2026-05-08 03:27 7.99793 -79.45424 21952 ft 426 kts 310°
2026-05-08 03:27 8.01560 -79.47722 21825 ft 405 kts 310°
2026-05-08 03:28 8.03244 -79.49913 21670 ft 386 kts 310°
2026-05-08 03:28 8.04869 -79.52020 21305 ft 376 kts 311°
2026-05-08 03:28 8.06613 -79.53953 20683 ft 369 kts 321°
2026-05-08 03:28 8.08751 -79.55322 19991 ft 362 kts 341°
2026-05-08 03:29 8.11171 -79.55870 19346 ft 354 kts 358°
2026-05-08 03:29 8.13619 -79.55926 18705 ft 350 kts
2026-05-08 03:29 8.16052 -79.55840 18073 ft 349 kts
2026-05-08 03:29 8.18454 -79.55737 17442 ft 344 kts
2026-05-08 03:30 8.22406 -79.55604 16487 ft 340 kts
2026-05-08 03:30 8.27083 -79.55505 15296 ft 326 kts
2026-05-08 03:31 8.31604 -79.55434 14120 ft 325 kts
2026-05-08 03:31 8.36122 -79.55371 12620 ft 319 kts
2026-05-08 03:32 8.38323 -79.55345 11868 ft 312 kts
2026-05-08 03:32 8.40461 -79.55318 11066 ft 304 kts
2026-05-08 03:32 8.42571 -79.55291 10244 ft 303 kts
2026-05-08 03:32 8.44658 -79.55265 9356 ft 299 kts
2026-05-08 03:33 8.46726 -79.55240 8455 ft 294 kts
2026-05-08 03:33 8.48760 -79.55211 7489 ft 293 kts
2026-05-08 03:33 8.50796 -79.55184 6490 ft 291 kts
2026-05-08 03:33 8.52793 -79.55156 5885 ft 278 kts
2026-05-08 03:34 8.54681 -79.55131 5477 ft 267 kts
2026-05-08 03:34 8.56520 -79.55109 5126 ft 262 kts
2026-05-08 03:34 8.58349 -79.55085 4774 ft 263 kts
2026-05-08 03:34 8.60123 -79.54924 4426 ft 257 kts 10°
2026-05-08 03:35 8.61882 -79.54549 4073 ft 253 kts 13°
2026-05-08 03:35 8.63584 -79.54138 3726 ft 250 kts 13°
2026-05-08 03:35 8.65257 -79.53730 3532 ft 242 kts 13°
2026-05-08 03:35 8.66350 -79.53462 3503 ft 237 kts 13°
2026-05-08 03:36 8.67959 -79.53066 3489 ft 238 kts 14°
2026-05-08 03:36 8.69565 -79.52672 3489 ft 238 kts 14°
2026-05-08 03:36 8.71175 -79.52276 3489 ft 237 kts 14°
2026-05-08 03:36 8.72614 -79.51923 3488 ft 237 kts 13°
2026-05-08 03:37 8.74219 -79.51530 3494 ft 237 kts 14°
2026-05-08 03:37 8.75827 -79.51137 3501 ft 238 kts 13°
2026-05-08 03:37 8.77438 -79.50745 3434 ft 238 kts 14°
2026-05-08 03:37 8.79036 -79.50313 3302 ft 238 kts 17°
2026-05-08 03:38 8.80605 -79.49783 3155 ft 237 kts 19°
2026-05-08 03:38 8.82151 -79.49237 3094 ft 234 kts 19°
2026-05-08 03:38 8.83651 -79.48700 3080 ft 224 kts 19°
2026-05-08 03:38 8.85099 -79.48184 3085 ft 217 kts 19°
2026-05-08 03:39 8.86507 -79.47683 3092 ft 212 kts 19°
2026-05-08 03:39 8.87832 -79.47210 3096 ft 192 kts 19°
2026-05-08 03:39 8.89028 -79.46781 2944 ft 175 kts 20°
2026-05-08 03:39 8.90166 -79.46378 2751 ft 173 kts 21°
2026-05-08 03:40 8.91301 -79.45974 2433 ft 172 kts 22°
2026-05-08 03:40 8.92417 -79.45570 2224 ft 169 kts 22°
2026-05-08 03:40 8.93495 -79.45183 2134 ft 161 kts 22°
2026-05-08 03:40 8.94583 -79.44792 2128 ft 171 kts 21°
2026-05-08 03:41 8.95740 -79.44367 1979 ft 181 kts 25°
2026-05-08 03:41 8.96861 -79.43790 1890 ft 180 kts 31°
2026-05-08 03:41 8.97948 -79.43181 1886 ft 177 kts 31°
2026-05-08 03:41 8.99030 -79.42571 1796 ft 179 kts 30°
2026-05-08 03:42 9.00089 -79.41973 1634 ft 171 kts 28°
2026-05-08 03:42 9.01083 -79.41409 1294 ft 156 kts 28°
2026-05-08 03:42 9.02016 -79.40880 936 ft 153 kts 30°
2026-05-08 03:42 9.02999 -79.40310 1272 ft 165 kts 32°
2026-05-08 03:43 9.03809 -79.39562 2576 ft 172 kts 61°
2026-05-08 03:43 9.03913 -79.38288 3502 ft 194 kts 99°
2026-05-08 03:43 9.03593 -79.37031 5006 ft 167 kts 106°
2026-05-08 03:43 9.03035 -79.35957 5754 ft 175 kts 115°
2026-05-08 03:44 9.02490 -79.34875 6148 ft 173 kts 113°
2026-05-08 03:44 9.01949 -79.33777 6193 ft 174 kts 114°
2026-05-08 03:44 9.01408 -79.32688 6135 ft 174 kts 114°
2026-05-08 03:44 9.00865 -79.31597 6070 ft 174 kts 114°
2026-05-08 03:45 9.00265 -79.30386 6140 ft 213 kts 114°
2026-05-08 03:45 8.99559 -79.28962 5970 ft 233 kts 114°
2026-05-08 03:45 8.98823 -79.27492 6002 ft 237 kts 115°
2026-05-08 03:45 8.98075 -79.26005 6016 ft 238 kts 115°
2026-05-08 03:46 8.97326 -79.24516 6011 ft 237 kts 115°
2026-05-08 03:46 8.96495 -79.23082 5987 ft 239 kts 129°
2026-05-08 03:46 8.95091 -79.22108 6033 ft 258 kts 159°
2026-05-08 03:46 8.93293 -79.21882 5980 ft 266 kts 186°
2026-05-08 03:47 8.91561 -79.22500 5778 ft 265 kts 214°
2026-05-08 03:47 8.90320 -79.23835 5580 ft 262 kts 243°
2026-05-08 03:47 8.89839 -79.25576 5386 ft 257 kts 271°
2026-05-08 03:47 8.90043 -79.27356 5210 ft 256 kts 282°
2026-05-08 03:48 8.90367 -79.29131 4989 ft 257 kts 279°
2026-05-08 03:48 8.90442 -79.30936 4784 ft 258 kts 268°
2026-05-08 03:48 8.90167 -79.32727 4583 ft 258 kts 257°
2026-05-08 03:48 8.89558 -79.34432 4381 ft 259 kts 246°
2026-05-08 03:49 8.88631 -79.35998 4181 ft 259 kts 234°
2026-05-08 03:49 8.87475 -79.37391 4101 ft 259 kts 229°
2026-05-08 03:49 8.86261 -79.38750 3901 ft 256 kts 229°
2026-05-08 03:49 8.85105 -79.40034 3670 ft 240 kts 229°
2026-05-08 03:50 8.84140 -79.41377 3412 ft 235 kts 249°
2026-05-08 03:50 8.83925 -79.42963 3190 ft 227 kts 282°
2026-05-08 03:50 8.84555 -79.44376 3121 ft 220 kts 313°
2026-05-08 03:50 8.85631 -79.45481 3126 ft 221 kts 318°
2026-05-08 03:51 8.86728 -79.46568 3106 ft 221 kts 321°
2026-05-08 03:51 8.88025 -79.47361 3061 ft 218 kts 342°
2026-05-08 03:51 8.89499 -79.47600 2782 ft 215 kts
2026-05-08 03:51 8.90943 -79.47238 2501 ft 216 kts 26°
2026-05-08 03:52 8.92275 -79.46519 2140 ft 220 kts 31°
2026-05-08 03:52 8.93613 -79.45743 1763 ft 223 kts 31°
2026-05-08 03:52 8.94917 -79.44982 1612 ft 204 kts 30°
2026-05-08 03:52 8.96061 -79.44305 1587 ft 178 kts 32°
2026-05-08 03:53 8.97103 -79.43656 1647 ft 177 kts 32°
2026-05-08 03:53 8.98178 -79.43026 1530 ft 178 kts 29°
2026-05-08 03:53 8.99253 -79.42427 1302 ft 172 kts 29°
2026-05-08 03:53 9.00252 -79.41860 1051 ft 158 kts 29°
2026-05-08 03:54 9.01181 -79.41326 855 ft 148 kts 29°
2026-05-08 03:54 9.02064 -79.40820 653 ft 145 kts 29°
2026-05-08 03:54 9.02945 -79.40312 488 ft 148 kts 29°
2026-05-08 03:54 9.03832 -79.39794 301 ft 146 kts 30°
2026-05-08 03:55 9.04708 -79.39291 94 ft 143 kts 30°
2026-05-08 03:55 9.05484 -79.38851 38 ft 102 kts 29°
2026-05-08 03:55 9.05932 -79.38596 40 ft 46 kts 29°
2026-05-08 03:55 9.06108 -79.38496 38 ft 25 kts 29°
2026-05-08 03:56 9.06252 -79.38415 38 ft 22 kts 29°
2026-05-08 03:56 9.06334 -79.38376 38 ft 5 kts 10°
2026-05-08 03:56 9.06377 -79.38375 37 ft 6 kts 358°
2026-05-08 03:56 9.06419 -79.38376 37 ft 5 kts 359°
2026-05-08 03:57 9.06454 -79.38377 37 ft 4 kts 359°
2026-05-08 03:57 9.06480 -79.38377 37 ft 3 kts
2026-05-08 03:57 9.06508 -79.38377 35 ft 4 kts
2026-05-08 03:57 9.06547 -79.38376 37 ft 6 kts
2026-05-08 03:58 9.06602 -79.38377 37 ft 9 kts 356°
2026-05-08 03:58 9.06638 -79.38391 37 ft 1 kts 315°
2026-05-08 03:58 9.06647 -79.38406 37 ft 5 kts 301°
2026-05-08 03:58 9.06661 -79.38436 37 ft 3 kts 285°
2026-05-08 03:59 9.06657 -79.38457 35 ft 3 kts 252°
2026-05-08 03:59 9.06651 -79.38462 37 ft 1 kts 225°
2026-05-08 03:59 9.06626 -79.38476 35 ft 9 kts 210°
2026-05-08 03:59 9.06576 -79.38504 37 ft 8 kts 208°
2026-05-08 04:00 9.06544 -79.38522 35 ft 3 kts 211°
2026-05-08 04:00 9.06531 -79.38535 37 ft 2 kts 237°
2026-05-08 04:00 9.06529 -79.38547 37 ft 2 kts 259°
2026-05-08 04:00 9.06531 -79.38562 37 ft 1 kts 281°
2026-05-08 04:01 9.06536 -79.38570 37 ft 1 kts 298°
2026-05-08 04:01 9.06543 -79.38584 37 ft 3 kts 299°
2026-05-08 04:01 9.06551 -79.38598 37 ft 0 kts 300°
2026-05-08 04:02 9.06552 -79.38599 37 ft 1 kts 302°
2026-05-08 04:02 9.06556 -79.38606 37 ft 2 kts 300°
2026-05-08 04:02 9.06562 -79.38617 37 ft 1 kts 300°
2026-05-08 04:02 9.06564 -79.38621 37 ft 0 kts 299°
2026-05-08 04:03 9.06567 -79.38625 37 ft 1 kts 299°
2026-05-08 04:03 9.06569 -79.38629 37 ft 0 kts 299°